Delta Virtual Airport Information Service

Baltimore Washington International Airport

ICAO: KBWI Country: United States
Latitude: 39.1754 Longitude: -76.6683
Latest Arrival : SWA1868 (MYNN-KBWI) Latest Departure : SWA821 (KBWI-MDPC)


WX CaptureLIVE
Data provided by noaa.gov | Fetched at 18:05:11

METAR : KBWI 172144Z 11014G25KT 1SM R10/2800VP6000FT +TSRA FEW026 BKN055CB OVC075 19/15 A2997 RMK AO2 PK WND 06043/2128 WSHFT 2118 LTG DSNT SW AND NW RAB20GRB31E35 TSB2059 FRQ LTGICCG OHD TS OHD MOV S P0009 T01940150 $

TAF : KBWI 172144Z 11014G25KT 1SM R10/2800VP6000FT +TSRA FEW026 BKN055CB OVC075 19/15 A2997 RMK AO2 PK WND 06043/2128 WSHFT 2118 LTG DSNT SW AND NW RAB20GRB31E35 TSB2059 FRQ LTGICCG OHD TS OHD MOV S P0009 T01940150 $


Runway Data for KBWI
Data provided by openaviationdata.com

Runway ID Mag Var Hdg Length Elevation Surface ILS Freq ILS Id ILS Slope
4 -11 44° 6002 ft 146 ft Asphalt -- -- --
10 -11 105° 10489 ft 146 ft Asphalt 109.7 IBAL 3
15L -11 155° 5000 ft 146 ft Asphalt 111.95 IUQC 3
15R -11 155° 9503 ft 146 ft Asphalt 111.7 IFND 3
22 -11 224° 6002 ft 146 ft Asphalt -- -- --
28 -11 285° 10489 ft 146 ft Asphalt 109.7 IOEH 3
33L -11 335° 9503 ft 146 ft Asphalt 111.7 IRUX 3
33R -11 335° 5000 ft 146 ft Asphalt 111.95 IBWI 3

Baltimore Washington International Airport, United States
Use only for reference purposes



Not for navigational purposes.